{"data":{"norad_id":43871,"epoch":"2026-05-25T05:18:04.845888Z","epoch_age_seconds":55241,"freshness":"FRESH","line1":"1 43871U 18108A   26145.22088942  .00000021  00000+0  10039-3 0  9992","line2":"2 43871  99.7563 167.4455 0014610 110.8791 249.3909 13.51209826365989","mean_motion":13.51209826,"eccentricity":0.001461,"inclination_deg":99.7563,"raan_deg":167.4455,"arg_perigee_deg":110.8791,"mean_anomaly_deg":249.3909,"bstar":0.00010039,"rev_number":36598,"period_min":106.57116106555,"perigee_km":1056.9321142271,"apogee_km":1078.6891732421,"semimajor_km":7445.9476437346,"source":"CELESTRAK","updated_at":"2026-05-25T13:37:55.923271Z"}}